Tracking 27086 objects as of 22-Mar-2023
HD Live streaming from Space Station
objects crossing your sky now

STARLINK-3672

Track STARLINK-3672 now!
10-day predictions
STARLINK-3672 is classified as:


NORAD ID: 51974
Int'l Code: 2022-025U
Perigee: 556.3 km
Apogee: 557.3 km
Inclination: 53.2 °
Period: 95.6 minutes
Semi major axis: 6927 km
RCS: Unknown
Launch date: March 9, 2022
Source: United States (US)
Launch site: AIR FORCE EASTERN TEST RANGE (AFETR)
Your satellite tracking list
Your tracking list is empty




NASA's NSSDC Master Catalog

Two Line Element Set (TLE):
1 51974U 22025U   23081.10407346 -.00001527  00000-0 -85673-4 0  9996
2 51974  53.1998 213.9203 0000669  98.2737 261.8329 15.05599085 58696
Source of the keplerian elements: AFSPC